Location: Peterborough
(44.3091°N, 78.3197°W)
Time: 06:07:17
(UTC-04:00)

Vanguard 3 - Pass Details

Date: 24 March 2023
Orbit: 507 x 3246 km, 33.4° (Epoch: 04 June)

Event Time Altitude Azimuth Distance (km) Brightness Sun altitude
Rises 10:19:29 0° 277° (W) 6,852 11.4 31.6°
Reaches altitude 10° 10:25:21 10° 268° (W) 5,483 11.0 32.4°
Maximum altitude 10:37:07 28° 219° (SW) 3,250 10.5 34.1°
Drops below altitude 10° 10:45:02 10° 165° (SSE) 3,599 11.4 35.2°
Sets 10:48:00 0° 153° (SSE) 4,219 11.7 35.6°
